Location: Columbia
(38.9520°N, 92.3340°W)
Time: 17:44:19
(UTC-05:00)

SL-08 RB Rocket - Visible Passes

Search period start: 25 May 2016 00:00
Search period end: 04 June 2016 00:00
Orbit: 647 x 686 km, 98.0° (Epoch: 25 May)

Date Brightness Start Highest point End Pass type
(mag) Time Alt. Az. Time Alt. Az. Time Alt. Az.
25 May 4.8 21:55:15 22° ESE 21:57:06 29° ENE 22:01:00 10° N visible
25 May 5.3 23:33:23 24° WSW 23:34:05 25° W 23:37:53 10° NW visible
26 May 3.8 22:27:20 41° SE 22:28:42 62° ENE 22:33:12 10° N visible
27 May 6.2 00:05:28 11° W 00:06:06 11° W 00:07:39 10° WNW visible
27 May 5.8 21:21:41 10° E 21:23:54 14° ENE 21:26:07 10° NE visible
27 May 4.0 22:59:25 46° SSW 23:00:27 59° W 23:04:56 10° NNW visible
28 May 4.9 21:53:21 20° ESE 21:55:21 28° ENE 21:59:11 10° NNE visible
28 May 5.2 23:31:29 25° WSW 23:32:19 26° W 23:36:09 10° NW visible
29 May 3.8 22:25:26 38° SE 22:26:57 60° ENE 22:31:25 10° N visible
30 May 6.2 00:03:34 12° WSW 00:04:20 12° W 00:06:05 10° WNW visible
30 May 5.8 21:20:08 10° E 21:22:10 13° ENE 21:24:12 10° NE visible
30 May 4.0 22:57:31 45° SSW 22:58:41 61° W 23:03:11 10° NNW visible
31 May 4.9 21:51:28 18° ESE 21:53:37 26° ENE 21:57:22 10° NNE visible
31 May 5.2 23:29:36 25° WSW 23:30:33 27° W 23:34:25 10° NW visible
01 Jun 3.9 22:23:32 35° SE 22:25:12 57° ENE 22:29:37 10° N visible
02 Jun 6.1 00:01:41 12° WSW 00:02:33 12° W 00:04:29 10° WNW visible
02 Jun 5.8 21:18:35 10° E 21:20:26 12° ENE 21:22:16 10° NE visible
02 Jun 3.9 22:55:37 43° SSW 22:56:55 64° W 23:01:24 10° NNW visible
03 Jun 5.0 21:49:34 17° ESE 21:51:51 25° ENE 21:55:32 10° NNE visible
03 Jun 5.1 23:27:42 25° WSW 23:28:46 28° W 23:32:41 10° NW visible
